Weather History for Skagway, AK

Change the Weather History Date:

Thursday, September 11, 2014

  Actual Average Record
Temperature  
Mean Temperature 52 °F -  
Max Temperature 55 °F 54 °F 69 °F (1983)
Min Temperature 48 °F 43 °F 30 °F (1970)
Degree Days  
Heating Degree Days 14    
Growing Degree Days 2 (Base 50)    
Moisture  
Dew Point 47 °F    
Average Humidity 86    
Maximum Humidity 93    
Minimum Humidity 74    
Precipitation  
Precipitation 0.22 in - - ()
Sea Level Pressure  
Sea Level Pressure 30.29 in    
Wind  
Wind Speed 4 mph (SW)    
Max Wind Speed 16 mph    
Max Gust Speed 17 mph    
Visibility 9 miles    
Events Rain    
Averages and records for this station are not official NWS values.
T = Trace of Precipitation, MM = Missing Value Source: NWS Daily Summary

Daily Weather History Graph

Daily Weather History Graph

Search for Another Location

Airport:

Trip Planner

Search our weather history database for the weather conditions in past years. The results will help you decide how hot, cold, wet, or windy it might be!

Date:

Astronomy

Sep. 11, 2014 Rise Set
Actual Time 6:21 AM AKDT 7:33 PM AKDT
Civil Twilight 5:38 AM AKDT 8:15 PM AKDT
Nautical Twilight 4:46 AM AKDT 9:07 PM AKDT
Astronomical Twilight 3:46 AM AKDT 10:06 PM AKDT
Moon 8:20 PM AKDT (9/11) 10:18 AM AKDT (9/11)
Length of Visible Light 14h 36m
Length of Day
13h 12m
Waning Gibbous, 89% of the Moon is Illuminated
Sep 11
Waning Gibbous
Sep 15
Last Quarter
Sep 23
New
Oct 1
First Quarter
Oct 8
Full

Hourly Weather History & Observations

Time (AKDT) Temp. Dew Point Humidity Pressure Visibility Wind Dir Wind Speed Gust Speed Precip Events Conditions
12:19 AM 53.1 °F 45.0 °F 74% 30.23 in 10.0 mi South 3.5 mph - N/A   Overcast
12:53 AM 52.0 °F 45.0 °F 77% 30.23 in 10.0 mi Calm Calm - N/A   Overcast
1:53 AM 52.0 °F 45.0 °F 77% 30.23 in 10.0 mi SSW 12.7 mph - N/A   Overcast
2:53 AM 50.0 °F 46.0 °F 86% 30.23 in 4.0 mi Calm Calm - 0.06 in Rain Rain
2:59 AM 50.0 °F 46.9 °F 89% 30.25 in 5.0 mi Calm Calm - 0.01 in Rain Light Rain
3:12 AM 50.0 °F 46.9 °F 89% 30.23 in 5.0 mi Calm Calm - 0.02 in Rain Light Rain
3:53 AM 50.0 °F 46.9 °F 89% 30.25 in 5.0 mi Calm Calm - 0.09 in Rain Light Rain
4:11 AM 50.0 °F 46.9 °F 89% 30.24 in 5.0 mi Calm Calm - 0.02 in Rain Light Rain
4:53 AM 50.0 °F 46.9 °F 89% 30.24 in 5.0 mi Calm Calm - 0.04 in Rain Light Rain
5:12 AM 50.0 °F 48.0 °F 93% 30.26 in 7.0 mi NNE 3.5 mph - 0.01 in Rain Light Rain
5:34 AM 48.9 °F 46.9 °F 93% 30.26 in 5.0 mi NNE 4.6 mph - 0.02 in Rain Light Rain
5:53 AM 50.0 °F 48.0 °F 93% 30.25 in 5.0 mi Calm Calm - 0.02 in Rain Light Rain
6:53 AM 48.9 °F 46.9 °F 93% 30.26 in 7.0 mi NNE 4.6 mph - 0.01 in Rain Light Rain
7:53 AM 50.0 °F 48.0 °F 93% 30.25 in 10.0 mi Calm Calm - 0.00 in   Overcast
8:41 AM 50.0 °F 48.0 °F 93% 30.26 in 10.0 mi Variable 4.6 mph - N/A   Overcast
8:53 AM 50.0 °F 48.0 °F 93% 30.28 in 10.0 mi Calm Calm - N/A   Overcast
9:53 AM 51.1 °F 48.0 °F 89% 30.29 in 10.0 mi West 5.8 mph - N/A   Overcast
10:12 AM 52.0 °F 48.0 °F 86% 30.29 in 10.0 mi SW 6.9 mph - N/A   Overcast
10:51 AM 50.0 °F 46.4 °F 87% 30.30 in 10.0 mi West 8.1 mph - N/A   Overcast
10:53 AM 50.0 °F 46.9 °F 89% 30.30 in 10.0 mi Variable 5.8 mph - N/A   Overcast
12:12 PM 53.1 °F 48.0 °F 83% 30.29 in 10.0 mi SSW 10.4 mph 17.3 mph N/A   Overcast
12:53 PM 55.0 °F 46.9 °F 74% 30.29 in 10.0 mi SSW 11.5 mph - N/A   Overcast
1:53 PM 54.0 °F 46.0 °F 75% 30.30 in 10.0 mi SSW 11.5 mph - N/A   Overcast
2:53 PM 54.0 °F 46.0 °F 75% 30.30 in 10.0 mi SSW 15.0 mph - N/A   Overcast
3:53 PM 52.0 °F 46.9 °F 83% 30.31 in 10.0 mi WSW 16.1 mph - N/A   Overcast
4:53 PM 52.0 °F 46.9 °F 83% 30.33 in 10.0 mi SW 11.5 mph - N/A   Overcast
5:53 PM 54.0 °F 48.9 °F 83% 30.34 in 10.0 mi Calm Calm - N/A   Overcast
6:17 PM 52.0 °F 48.0 °F 86% 30.32 in 10.0 mi SW 3.5 mph - N/A   Overcast
6:53 PM 52.0 °F 46.9 °F 83% 30.33 in 10.0 mi Calm Calm - N/A   Overcast
7:53 PM 52.0 °F 48.0 °F 86% 30.34 in 10.0 mi Calm Calm - N/A   Overcast
8:12 PM 51.1 °F 48.0 °F 89% 30.35 in 10.0 mi Calm Calm - N/A   Overcast
8:53 PM 52.0 °F 48.0 °F 86% 30.34 in 10.0 mi Calm Calm - N/A   Overcast
9:53 PM 52.0 °F 48.9 °F 89% 30.34 in 10.0 mi Calm Calm - N/A   Overcast
10:25 PM 51.1 °F 48.9 °F 92% 30.34 in 10.0 mi Calm Calm - N/A   Overcast
10:53 PM 51.1 °F 48.9 °F 92% 30.35 in 10.0 mi Calm Calm - N/A   Overcast
11:53 PM 51.1 °F 48.9 °F 92% 30.35 in 10.0 mi Calm Calm - N/A   Overcast